Location: El Gallo
(32.4380°N, 116.9347°W)
Time: 19:58:24
(UTC+00:00)

USA 276 - Pass Details

Date: 01 October 2022
Orbit: 366 x 369 km, 50.0° (Epoch: 12 July)

Event Time Altitude Azimuth Distance (km) Brightness Sun altitude
Exits shadow 13:16:25 - 250° (WSW) 1,575 4.6 -6.2°
Reaches altitude 10° 13:17:02 10° 254° (WSW) 1,337 4.2 -6.1°
Maximum altitude 13:19:48 35° 322° (NW) 607 2.8 -5.5°
Drops below altitude 10° 13:22:37 10° 31° (NNE) 1,349 5.3 -4.9°
Sets 13:24:46 0° 41° (NE) 2,200 6.5 -4.4°
